Skip Page Navigation
NASA JPL Caltech
NASA Logo - Jet Propulsion Laboratory + View the NASA Portal
+ Near-Earth Object (NEO) Program
Search JPL
JPL Home Earth Solar System Stars & Galaxies Technology
JPL Solar System Dynamics
BODIES ORBITS EPHEMERIDES TOOLS PHYSICAL DATA DISCOVERY FAQ SITE MAP
JPL Small-Body Database Browser
Search: [ help ]  
27707 (1986 QY3)
Classification: Main-belt Asteroid          SPK-ID: 2027707
Ephemeris | Orbit Diagram | Orbital Elements | Physical Parameters | Discovery Circumstances | Close-Approach Data ]

[ show orbit diagram ]
Orbital Elements at Epoch 2457000.5 (2014-Dec-09.0) TDB
Reference: JPL 9 (heliocentric ecliptic J2000)
 Element Value Uncertainty (1-sigma)   Units 
e .1861855407241715 7.3688e-08  
a 2.415914705504924 2.3575e-08 AU
q 1.966106319717012 1.7689e-07 AU
i 3.643521651373316 7.6263e-06 deg
node 120.3482129475947 0.0001296 deg
peri 211.605176391127 0.00013291 deg
M 194.9854875848918 3.935e-05 deg
tp 2457629.195660362946
(2016-Aug-28.69566036)
0.00015737 JED
period 1371.578986709404
3.76
2.0076e-05
5.497e-08
d
yr
n .2624712127324775 3.8419e-09 deg/d
Q 2.865723091292836 2.7965e-08 AU
  Orbit Determination Parameters
   # obs. used (total)      499  
   data-arc span      10436 days (28.57 yr)  
   first obs. used      1986-08-31  
   last obs. used      2015-03-28  
   planetary ephem.      DE431  
   SB-pert. ephem.      SB431-BIG16  
   condition code      0  
   fit RMS      .56776  
   data source      ORB  
   producer      Otto Matic  
   solution date      2015-Apr-07 17:26:05  

Additional Information
 Earth MOID = .957166 AU 
 T_jup = 3.490 
[ show covariance matrix ]

Ephemeris | Orbit Diagram | Orbital Elements | Physical Parameters | Discovery Circumstances | Close-Approach Data ]

Physical Parameter Table
Parameter Symbol Value Units Sigma Reference Notes
absolute magnitude H 15.3 mag n/a MPO279804  

27707 (1986 QY3)          Discovered 1986-Aug-31 by Debehogne, H. at La Silla
Reference: 20010902/Numbers.arcLast Updated: 2004-04-19

[ show close-approach data ]
Alternate Designations
 1986 QY3 = 1997 MJ4 
Ephemeris | Orbit Diagram | Orbital Elements | Physical Parameters | Discovery Circumstances | Close-Approach Data ]
ABOUT SSD CREDITS/AWARDS PRIVACY/COPYRIGHT GLOSSARY LINKS
FirstGov 2015-May-28 20:07 UT
(server date/time)  
NASA Home Page
Site Manager:   Ryan S. Park
Webmaster  Alan B. Chamberlin